STARLINK-32126 (60295 NORAD) Tracking and Keplerian Element Data

This shows tracking and keplerian element data for the satellite.

Feedback or suggestion? Click here.




ElementValue
Catalog60295
NameSTARLINK-32126
Epoch Orbit1301
Epoch Day286.69430529
Epoch Year2024
RAAN275.5866
Inclination53.1589
Eccentricity0.0001521
Argument of Perigee83.0601
Mean Anonmoly277.0573
Mean Motion15.3019241
Decay Rate0.00010522
L11 60295U 24132T 24286.69430529 .00010522 00000+0 36695-3 0 9995
L22 60295 53.1589 275.5866 0001521 83.0601 277.0573 15.30192410 13013



Live tracking and technical data element details for STARLINK-32126 (NORAD 60295). STARLINK-32126 can be tracked NOW for your location showing map with azimuth and elevation plus other details from your city location.







IsCatalogInMostPopularTable: catalog: 60295, numindb: 9
Update: records affected: 1



GetName: 60295 STARLINK-32126

Hit Count: updated at: Thu, 23 Jan 2025 15:12:51 GMT